Regional Weather Roundup
Issued by NWS

Home | Current Version | Previous Version | Text Only | Print | Product List | Glossary On
Versions: 1 2 3 4 5 6 7 8 9 10 11 12 13 14 15 16 17 18 19 20 21 22 23 24 25 26 27
000
ASPQ40 PGUM 181912
RWRPQ
WEATHER ROUNDUP FOR THE MARIANAS AND MICRONESIA
NATIONAL WEATHER SERVICE TIYAN GU
500 AM CHST SUN NOV 19 2017

GUZ001>004-182000-
MARIANA ISLANDS-

CITY           SKY/WX    TMP DP  RH WIND       PRES   REMARKS
GUAM AIRPORT   CLEAR     81  79  94 E5        29.84S
ANDERSEN AFB   PTCLDY    81  75  83 E12       29.85R
ROTA AIRPORT   NOT AVBL
TINIAN AP      NOT AVBL
SAIPAN AP      MOCLDY    82  77  83 E10       29.84S HX  91

$$

PMZ161-182000-
REPUBLIC OF PALAU-

CITY           SKY/WX    TMP DP  RH WIND       PRES   REMARKS
KOROR AP       LGT RAIN  79  77  94 N3        29.76F
KOROR WSO      LGT RAIN  81  77  89 NW6       29.77S

$$

PMZ171>174-182000-
FEDERATED STATES OF MICRONESIA-

CITY           SKY/WX    TMP DP  RH WIND       PRES   REMARKS
YAP AIRPORT    MOCLDY    81  75  83 VRB6      29.77R
CHUUK AP       PTCLDY    81  77  89 VRB3      29.74R
POHNPEI AP     NOT AVBL
POHNPEI WSO    MOCLDY    77  75  94 S6        29.77R
KOSRAE AP      NOT AVBL

$$

PMZ181-182000-
REPUBLIC OF THE MARSHALL ISLANDS-

CITY           SKY/WX    TMP DP  RH WIND       PRES   REMARKS
KWAJALEIN AP   CLEAR     82  77  83 E17       29.73R HX  91
MAJURO AP      MOCLDY    82  75  78 NE14      29.70
MAJURO WSO     MOCLDY    81  75  83 E10       29.71S

$$





USA.gov is the U.S. government's official web portal to all federal, state and local government web resources and services.